Hourly Weather Roundup
Issued by NWS Central Illinois

Home | Current Version | Previous Version | Text Only | Print | Product List | Glossary On
Versions: 1 2 3 4 5 6 7 8 9 10 11 12 13 14 15 16 17 18 19 20 21 22 23 24 25 26 27 28 29 30 31 32 33 34 35 36 37 38 39 40 41 42 43 44 45 46 47 48 49 50
000
NZUS43 KILX 010610
HWRILX

AREA WEATHER ROUNDUP
NATIONAL WEATHER SERVICE, LINCOLN IL
100 AM CDT WED APR 01 2015


CITY           SKY/WX    TMP DP  RH WIND       PRES   REMARKS
BLOOMINGTON    CLEAR     47  37  68 S12       30.00S
6HR MIN TEMP:  44; 6HR MAX TEMP:  63;

CHAMPAIGN      FAIR      41  34  76 SE5       30.00R
6HR MIN TEMP:  39; 6HR MAX TEMP:  59;

DECATUR        CLEAR     45  36  70 S5        30.00S
6HR MIN TEMP:  42; 6HR MAX TEMP:  62;

EFFINGHAM      CLEAR     44  35  70 CALM      30.02R
FLORA          CLEAR     46  38  76 CALM      30.01S
6HR MIN TEMP:  42; 6HR MAX TEMP:  64;

GALESBURG      CLEAR     39  33  78 CALM      29.96F
JACKSONVILLE   CLEAR     49  38  65 CALM      29.98S
6HR MIN TEMP:  46; 6HR MAX TEMP:  67;

LACON          CLEAR     47  34  62 SE5       29.97F
6HR MIN TEMP:  42; 6HR MAX TEMP:  62;

LAWRENCEVILLE  CLEAR     45  38  76 CALM      30.02R
6HR MIN TEMP:  44; 6HR MAX TEMP:  63;

LITCHFIELD     CLEAR     46  36  66 CALM      29.99S
$$


CITY           SKY/WX    TMP DP  RH WIND       PRES   REMARKS
LINCOLN        CLEAR     42  35  74 E3        29.99S
6HR MIN TEMP:  42; 6HR MAX TEMP:  66;

MACOMB         CLEAR     42  32  68 CALM      29.99F
MATTOON        CLEAR     44  36  73 SE6       29.99S
6HR MIN TEMP:  44; 6HR MAX TEMP:  60;

MT CARMEL AP   CLEAR     45  37  76 CALM      30.01R
OLNEY-NOBLE AP CLEAR     45  37  76 CALM      30.01S
PARIS          CLEAR     42  37  79 CALM      30.02R
6HR MIN TEMP:  41; 6HR MAX TEMP:  58;

PEORIA         CLEAR     53  35  50 SE6       29.98F
6HR MIN TEMP:  49; 6HR MAX TEMP:  68;

PONTIAC        CLEAR     36  33  88 S6        30.00R WCI  31
RANTOUL        CLEAR     42  37  80 SE3       30.00R
ROBINSON       CLEAR     39  37  89 CALM      30.03R
6HR MIN TEMP:  39; 6HR MAX TEMP:  61;

SPRINGFIELD    CLEAR     46  35  65 S3        29.99S
6HR MIN TEMP:  44; 6HR MAX TEMP:  67;

TAYLORVILLE    CLEAR     45  37  76 CALM      30.00S
$$

...REGIONAL REPORTS...


CITY           SKY/WX    TMP DP  RH WIND       PRES   REMARKS
CHICAGO O`HARE CLEAR     44  35  70 S6        29.96S
KANKAKEE       CLEAR     39  35  84 S5        30.00S
MOLINE         CLEAR     38  30  73 CALM      29.95F
MOUNT VERNON   CLEAR     37  34  87 CALM      30.01R
PITTSFIELD     CLEAR     47  39  73 CALM      30.00S
QUINCY         CLEAR     53  32  44 S6        29.97F
ROCKFORD       CLEAR     39  32  76 S3        29.97S
$$


CITY           SKY/WX    TMP DP  RH WIND       PRES   REMARKS
BURLINGTON     CLEAR     51  32  48 S3        29.95F
CEDAR RAPIDS   FAIR      45  32  60 SE5       29.92F
DES MOINES     CLEAR     54  33  45 S8        29.90F
KIRKSVILLE     CLEAR     51  35  54 SE7       29.97F
OTTUMWA        CLEAR     48  32  53 S6        29.93F
ST LOUIS       CLEAR     53  37  54 SW3       30.00R
$$


CITY           SKY/WX    TMP DP  RH WIND       PRES   REMARKS
TERRE HAUTE    CLEAR     43  35  73 E3        30.02R
EVANSVILLE     CLEAR     49  37  63 CALM      30.01S
INDIANAPOLIS   CLEAR     43  32  65 SE7       30.01R
LAFAYETTE      CLEAR     41  33  73 CALM      30.01S
MADISON        CLEAR     36  28  73 CALM      29.94S
MILWAUKEE      CLEAR     41  33  73 N6        29.97R
$$




USA.gov is the U.S. government's official web portal to all federal, state and local government web resources and services.